Location: Plymouth
(43.7490°N, 87.9770°W)
Time: 11:01:27
(UTC-05:00)

Daily predictions for brighter satellites

Satellite Brightness Start Highest point End
(mag) Time Altitude Azimuth Time Altitude Azimuth Time Altitude Azimuth
Iridium 4 Rocket 3.9 19:49:28 10° NNE 19:53:56 35° E 19:58:03 10° SSE
Cosmos 1980 Rocket 3.0 19:50:53 10° SSE 19:55:41 29° ESE 20:00:31 10° NE
USA 186 2.7 19:54:08 10° SE 19:56:32 24° ENE 19:58:48 10° NNE
Cosmos 1656 3.6 19:55:49 10° SSW 20:01:23 71° ESE 20:06:55 10° NNE
FENGYUN 3A 3.7 19:57:26 10° SSE 20:02:41 61° ENE 20:07:58 10° N
Cosmos 2369 4.3 19:58:20 10° SW 20:03:58 66° WNW 20:09:41 10° NNE
ALOS 2.3 20:00:28 10° SSE 20:05:04 64° ENE 20:09:43 10° N
Spot 2 Rocket 4.1 20:00:59 10° S 20:06:00 62° WSW 20:11:03 10° NNW
H-2A R/B 3.0 20:04:34 10° SSE 20:08:23 53° ENE 20:12:14 10° N
Resurs 1-3 3.9 20:05:07 10° S 20:09:29 71° WSW 20:13:53 10° NNW
RESURS DK-1 2.3 20:08:38 10° NNW 20:12:47 72° ENE 20:16:55 10° SSE
Cosmos 2123 Rocket 4.4 20:07:44 10° NNW 20:13:53 69° W 20:20:00 10° S
Cosmos 1937 Rocket 3.6 20:09:31 10° NNW 20:14:47 63° ENE 20:20:02 10° SSE
Cosmos 2061 Rocket 4.5 20:10:24 10° SSE 20:16:08 39° E 20:21:51 10° NNE
Envisat 4.2 20:12:39 10° ESE 20:16:40 25° ENE 20:20:46 10° N
Cosmos 2263 Rocket 4.0 20:13:21 10° N 20:16:40 16° NE 20:19:57 10° E
CZ-4 DEB 4.2 20:14:52 13° ESE 20:16:49 21° ENE 20:19:16 10° NNE
Cosmos 1459 Rocket 4.4 20:11:34 10° SSE 20:17:10 40° E 20:22:49 10° NNE
Tiangong 1 2.2 20:15:49 10° W 20:18:41 34° SSW 20:21:05 13° SE
Cosmos 990 Rocket 4.2 20:15:28 10° NNW 20:20:36 53° ENE 20:25:42 10° SE
Cosmos 1500 3.1 20:22:17 10° S 20:26:01 70° E 20:29:48 10° NNE
Cosmos 2227 Rocket 4.0 20:21:14 10° NW 20:26:08 31° WSW 20:31:02 10° SSW
Cosmos 2298 Rocket 4.4 20:22:56 10° NNW 20:28:14 67° WSW 20:33:30 10° S
Cosmos 1340 3.3 20:25:01 10° N 20:28:34 36° ENE 20:31:12 16° SE
Cosmos 2322 Rocket 3.3 20:27:06 10° SSE 20:31:16 22° E 20:35:27 10° NE
ERS-1 Rocket 3.4 20:28:59 12° SE 20:33:17 43° ENE 20:38:01 10° N
EO 1 Delta rocket 4.2 20:30:31 10° N 20:35:20 82° WNW 20:41:05 10° SSW
CZ-2D R/B 3.7 20:32:27 10° S 20:36:18 65° W 20:40:11 10° NNW
Cosmos 2297 Rocket 3.8 20:35:41 10° NW 20:40:41 33° WSW 20:45:40 10° SSW
Resurs 01 Rocket 3.9 20:37:40 10° SSW 20:41:21 25° W 20:45:04 10° NW
Cosmos 1975 4.0 20:38:09 10° SSW 20:42:06 47° WNW 20:46:06 10° N
Cosmos 1726 Rocket 4.1 20:40:10 12° SSE 20:43:53 37° E 20:47:57 10° NNE
Cosmos 1763 Rocket 3.4 20:40:47 10° S 20:45:46 58° ESE 20:50:45 10° NNE
Cosmos 2360 4.2 20:47:46 10° S 20:53:23 61° ESE 20:59:02 10° NNE
H-2A R/B 4.1 20:54:34 10° ENE 20:55:21 10° NE 20:56:08 10° NE
Cosmos 2227 4.2 20:50:00 10° NNW 20:55:46 86° ENE 21:00:00 19° SSE
Cosmos 1825 Rocket 3.5 20:53:35 10° N 20:58:02 88° E 21:01:32 16° S
BREEZE-M DEB (TANK) 1.7 20:55:53 10° WNW 20:58:03 74° NNE 20:59:21 34° ESE
ASTEX 1 3.9 20:58:53 10° NNE 21:03:33 39° E 21:05:15 30° SE
Meteor 1-21 4.2 20:57:55 10° N 21:03:45 84° E 21:08:37 15° SSE
Cosmos 405 Rocket 4.2 21:02:03 10° NNE 21:04:30 20° ENE 21:04:30 20° ENE
Cosmos 1125 Rocket 3.7 21:01:07 10° NNW 21:06:15 54° ENE 21:08:30 31° SE
Cosmos 1802 Rocket 4.0 21:01:27 10° S 21:07:51 85° E 21:14:20 10° N
Cosmos 2228 3.5 21:08:22 35° E 21:08:37 35° E 21:12:33 10° NNE
Cosmos 2016 Rocket 3.9 21:03:43 10° S 21:09:50 75° E 21:16:03 10° N
Cosmos 1953 Rocket 3.5 21:06:32 10° N 21:11:02 89° E 21:13:39 25° S
Cosmos 841 Rocket 3.4 21:06:44 10° SSW 21:11:58 88° ESE 21:17:13 10° NNE
Cosmos 540 Rocket 4.0 21:12:07 34° ESE 21:12:39 35° ESE 21:17:18 10° NE
Cosmos 1743 3.3 21:09:05 10° SSW 21:12:56 58° W 21:16:49 10° N
H-2A R/B 2.1 21:12:09 41° ESE 21:13:09 52° ENE 21:17:14 10° N
SPOT 1/Viking Rocket 4.4 21:13:18 28° E 21:14:28 31° ENE 21:19:02 10° N
Cosmos 1697 Rocket 3.9 21:09:10 10° SW 21:14:31 43° WNW 21:19:54 10° NNE
Cosmos 332 Rocket 4.2 21:17:01 39° ESE 21:17:32 40° ESE 21:22:07 10° NE
Cosmos 2173 Rocket 4.4 21:15:10 10° SSW 21:21:29 68° W 21:27:47 10° N
ARGOS 3.9 21:20:24 31° E 21:21:31 34° ENE 21:26:22 10° N
Cosmos 2098 Rocket 3.7 21:14:58 10° S 21:21:33 70° E 21:26:49 10° NNE
Cosmos 1939 Rocket 3.1 21:22:25 31° S 21:24:19 70° WSW 21:28:30 10° NNW
Lacrosse 5 3.9 21:23:16 10° WNW 21:26:54 20° WSW 21:30:13 11° SSW
MetOp-B 4.2 21:25:40 40° SE 21:27:21 59° ENE 21:32:38 10° N
Cosmos 1758 Rocket 3.7 21:24:46 10° NNW 21:29:05 68° W 21:30:56 33° S
Cosmos 1375 Rocket 4.5 21:22:44 10° SSW 21:29:15 68° ESE 21:35:48 10° NE
SL-16 R/B 2.1 21:24:41 10° S 21:30:16 63° ESE 21:35:52 10° NNE
BREEZE-M TANK 3.2 21:21:47 10° WNW 21:30:19 48° SW 21:31:15 40° S
Cosmos 372 Rocket 4.1 21:27:11 10° NNW 21:32:15 56° ENE 21:33:14 48° ESE
BREEZE-M DEB (TANK) 4.2 21:31:15 10° WNW 21:35:17 82° SSW 21:40:18 32° SE
SPOT 5 2.7 21:36:37 51° SSE 21:37:51 82° ENE 21:42:35 10° NNW
Cosmos 1864 Rocket 4.3 21:34:34 21° S 21:38:51 82° E 21:45:01 10° N
Cosmos 1980 Rocket 3.3 21:34:03 10° SW 21:39:28 44° WNW 21:44:56 10° NNE
Cosmos 2360 Rocket 3.7 21:42:34 21° ENE 21:42:34 21° ENE 21:44:50 10° NE
Meteor 2-17 Rocket 4.4 21:40:15 45° SE 21:41:50 58° E 21:47:45 10° NNE
YAOGAN 6 2.9 21:42:51 61° NNE 21:42:51 61° NNE 21:46:04 10° N
Terra 3.4 21:47:05 22° NE 21:47:05 22° NE 21:50:08 10° NNE
deb Chang Zheng 4 3.6 21:42:15 10° NNE 21:46:44 82° WNW 21:47:57 48° SSW
Cosmos 1666 3.7 21:48:56 32° SW 21:50:12 44° WNW 21:53:53 10° N
Cosmos 1842 4.4 21:49:47 10° NNW 21:53:27 39° W 21:54:09 36° WSW
Envisat 4.0 21:52:51 25° SSW 21:55:26 43° W 22:00:17 10° NNW
Tsikada Rocket 4.2 21:49:04 10° NNW 21:55:29 73° W 21:58:25 34° S
Cosmos 1707 4.5 21:52:59 10° N 21:54:55 24° NNE 21:54:55 24° NNE
CZ-4B R/B 4.3 21:54:05 10° NNE 21:57:06 34° NE 21:57:06 34° NE
Cosmos 2263 Rocket 2.0 21:55:53 10° NNW 22:01:29 83° ENE 22:02:03 72° SE
Cosmos 2058 Rocket 4.3 21:59:23 20° SW 22:02:09 41° WNW 22:06:27 10° N
SL-08 RB Rocket 4.0 22:04:23 57° NE 22:04:23 57° NE 22:08:22 10° N
Cosmos 2322 Rocket 2.7 22:09:20 10° SW 22:14:51 56° WNW 22:20:24 10° NNE
BREEZE-M DEB (TANK) 3.0 22:07:18 10° WSW 22:17:09 79° NNW 22:17:27 75° NNE
SL-19 R/B 4.3 22:25:45 10° N 22:31:07 67° WNW 22:31:25 65° W
Cosmos 2233 Rocket 4.3 22:30:38 44° SW 22:32:27 62° W 22:38:41 10° N
H-2A R/B 2.5 22:35:07 52° N 22:35:07 52° N 22:38:51 10° N
Meteor 2-5 Rocket 4.0 22:33:54 10° NNW 22:39:44 65° W 22:39:48 64° W
USA 215 3.5 22:39:52 52° ENE 22:40:52 57° NNE 22:47:16 10° NW
Meteor 1-24 Rocket 3.9 22:36:37 10° N 22:42:01 71° NNE 22:42:01 71° NNE
ATLAS CENTAUR R/B 4.2 22:49:07 57° ESE 22:49:17 57° ESE 23:09:19 10° NE
COSMOS 2428 4.4 22:54:28 22° NE 22:54:28 22° NE 22:56:32 10° NE
Cosmos 2278 Rocket 3.7 22:53:01 10° N 22:57:01 28° NE 22:57:01 28° NE
ARGOS 4.4 23:01:56 34° W 23:01:56 34° W 23:06:37 10° NNW
Cosmos 2034 Rocket 4.4 23:04:21 55° NNE 23:04:21 55° NNE 23:09:08 10° N
Cosmos 1844 Rocket 3.6 23:06:27 10° NNW 23:10:21 45° N 23:10:21 45° N
SL-16 R/B 4.3 23:10:20 10° WSW 23:14:50 23° NW 23:19:19 10° N
Cosmos 2360 Rocket 3.2 23:24:17 42° NW 23:24:17 42° NW 23:29:12 10° NNE
Terra 3.7 23:25:58 27° NW 23:25:58 27° NW 23:28:27 10° NNW
Lacrosse 4 Rocket 4.2 23:34:09 16° N 23:34:09 16° N 23:35:12 10° NNE
Cosmos 2219 Rocket 4.1 23:44:56 22° NNE 23:44:56 22° NNE 23:46:53 10° NNE
ATLAS 3B R/B 3.9 23:53:38 36° NE 23:53:38 36° NE 23:57:47 10° NE
